{"data":{"norad_id":48326,"intl_designator":"2021-036BC","name":"STARLINK-2498","alt_names":[],"object_type":"PAYLOAD","status":"ACTIVE","operator":null,"country":"US","launch_date":"2021-04-29","launch_site_code":"AFETR","launch_vehicle":null,"mission":null,"orbit_class":"UNKNOWN","rcs_meters":null,"size_class":null,"mass_kg":null,"dimensions":null,"purposes":["comms"],"wikipedia_slug":null,"has_3d_model":false,"image_url":null,"decayed_at":null,"tle_current":{"epoch":"2026-05-25T03:36:14.971392Z","epoch_age_seconds":65662,"freshness":"FRESH","line1":"1 48326U 21036BC  26145.15017328  .00021553  00000+0  70393-3 0  9990","line2":"2 48326  53.1604 105.4809 0001742  81.9405 278.1794 15.31715668279753","mean_motion":15.31715668,"eccentricity":0.0001742,"inclination_deg":53.1604,"raan_deg":105.4809,"arg_perigee_deg":81.9405,"mean_anomaly_deg":278.1794,"bstar":0.00070393,"rev_number":27975,"period_min":94.012226295253,"perigee_km":469.50022389453,"apogee_km":471.88635636761,"semimajor_km":6848.8302901311,"source":"CELESTRAK","updated_at":"2026-05-25T13:38:16.682196Z"}}}